Location: Hilton Head Island
(32.2163°N, 80.7526°W)
Time: 16:09:12
(UTC-05:00)

Explorer 11/Cluster Stage 4 - Pass Details

Date: 17 February 2026
Orbit: 463 x 1176 km, 28.8° (Epoch: 6 March)

Event Time Altitude Azimuth Distance (km) Brightness Sun altitude
Rises 18:52:39 0° 259° (W) 2,524 11.6 -9.5°
Reaches altitude 10° 18:55:42 10° 231° (SW) 1,715 9.3 -10.1°
Maximum altitude 18:57:38 13° 201° (SSW) 1,572 8.5 -10.5°
Drops below altitude 10° 18:59:41 10° 171° (S) 1,846 8.5 -11.0°
Sets 19:03:14 0° 145° (SE) 2,896 9.2 -11.7°
